When you browse on this site, cookies collect data to enhance your experience and personalize the content and advertising you see.
Visit our Privacy Policy to learn more. By continuing to use the site, you agree to this use of cookies and data.
  • In Schweiz
  • Länderverzeichnis
  • Für 7 Tage
  • Wassertemperatur
  • Satellitenkarten
  • Wetterkarte
  • Widgets
  • user-avatar
    Anmelden

    Stündliche Wetter Luanda

    Heute, 17 Juni, Montag

    Zeit Temperatur Niederschläge Wind Luftdruck Luftfeuchtigkeit
    00:00 +20°C° 0 mm 3 m/S 756 mmHg 94%
    01:00 +20°C° 0 mm 2 m/S 757 mmHg 98%
    02:00 +20°C° 0 mm 2 m/S 757 mmHg 96%
    03:00 +21°C° 0 mm 2 m/S 756 mmHg 93%
    04:00 +21°C° 0 mm 2 m/S 756 mmHg 90%
    05:00 +21°C° 0 mm 2 m/S 757 mmHg 89%
    06:00 +21°C° 0 mm 3 m/S 757 mmHg 88%
    07:00 +22°C° 0 mm 3 m/S 758 mmHg 83%
    08:00 +25°C° 0 mm 3 m/S 758 mmHg 73%
    09:00 +26°C° 0 mm 2 m/S 758 mmHg 64%
    10:00 +28°C° 0 mm 2 m/S 758 mmHg 55%
    11:00 +30°C° 0 mm 3 m/S 757 mmHg 49%
    12:00 +32°C° 0 mm 4 m/S 757 mmHg 42%
    13:00 +34°C° 0 mm 5 m/S 756 mmHg 35%
    14:00 +33°C° 0 mm 5 m/S 755 mmHg 38%
    15:00 +33°C° 0 mm 6 m/S 754 mmHg 40%
    16:00 +32°C° 0 mm 6 m/S 754 mmHg 42%
    17:00 +29°C° 0 mm 6 m/S 754 mmHg 53%
    18:00 +26°C° 0 mm 6 m/S 754 mmHg 65%
    19:00 +23°C° 0 mm 6 m/S 755 mmHg 76%
    20:00 +22°C° 0 mm 6 m/S 755 mmHg 79%
    21:00 +22°C° 0 mm 6 m/S 756 mmHg 83%
    22:00 +21°C° 0 mm 5 m/S 756 mmHg 86%
    23:00 +20°C° 0 mm 5 m/S 756 mmHg 88%

    Morgen, 18 Juni, Dienstag

    Zeit Temperatur Niederschläge Wind Luftdruck Luftfeuchtigkeit
    00:00 +20°C° 0 mm 4 m/S 756 mmHg 90%
    01:00 +19°C° 0 mm 3 m/S 756 mmHg 92%
    02:00 +19°C° 0 mm 3 m/S 756 mmHg 92%
    03:00 +18°C° 0 mm 3 m/S 756 mmHg 92%
    04:00 +18°C° 0 mm 3 m/S 755 mmHg 91%
    05:00 +18°C° 0 mm 2 m/S 756 mmHg 90%
    06:00 +18°C° 0 mm 2 m/S 756 mmHg 89%
    07:00 +18°C° 0 mm 2 m/S 756 mmHg 88%
    08:00 +21°C° 0 mm 2 m/S 756 mmHg 74%
    09:00 +26°C° 0 mm 2 m/S 757 mmHg 60%
    10:00 +29°C° 0 mm 2 m/S 757 mmHg 46%
    11:00 +30°C° 0 mm 3 m/S 756 mmHg 42%
    12:00 +33°C° 0 mm 4 m/S 755 mmHg 37%
    13:00 +35°C° 0 mm 5 m/S 755 mmHg 33%
    14:00 +34°C° 0 mm 6 m/S 754 mmHg 38%
    15:00 +32°C° 0 mm 6 m/S 754 mmHg 43%
    16:00 +30°C° 0 mm 6 m/S 753 mmHg 48%
    17:00 +28°C° 0 mm 6 m/S 754 mmHg 59%
    18:00 +26°C° 0 mm 5 m/S 754 mmHg 70%
    19:00 +22°C° 0 mm 5 m/S 754 mmHg 81%
    20:00 +21°C° 0 mm 4 m/S 755 mmHg 85%
    21:00 +20°C° 0 mm 3 m/S 755 mmHg 88%
    22:00 +20°C° 0 mm 2 m/S 756 mmHg 92%
    23:00 +19°C° 0 mm 2 m/S 756 mmHg 91%

    übermorgen, 19 Juni, Mittwoch

    Zeit Temperatur Niederschläge Wind Luftdruck Luftfeuchtigkeit
    00:00 +19°C° 0 mm 2 m/S 756 mmHg 91%
    01:00 +19°C° 0 mm 2 m/S 756 mmHg 91%
    02:00 +19°C° 0 mm 2 m/S 755 mmHg 90%
    03:00 +19°C° 0 mm 1 m/S 755 mmHg 90%
    04:00 +19°C° 0 mm 1 m/S 755 mmHg 90%
    05:00 +19°C° 0 mm 1 m/S 755 mmHg 89%
    06:00 +19°C° 0 mm 2 m/S 756 mmHg 88%
    07:00 +19°C° 0 mm 2 m/S 756 mmHg 86%
    08:00 +23°C° 0 mm 2 m/S 756 mmHg 73%
    09:00 +26°C° 0 mm 1 m/S 756 mmHg 60%
    10:00 +29°C° 0 mm 1 m/S 756 mmHg 46%
    11:00 +31°C° 0 mm 2 m/S 756 mmHg 42%
    12:00 +34°C° 0 mm 3 m/S 755 mmHg 38%
    13:00 +36°C° 0 mm 4 m/S 754 mmHg 33%
    14:00 +34°C° 0 mm 4 m/S 754 mmHg 40%
    15:00 +32°C° 0 mm 5 m/S 753 mmHg 47%
    16:00 +30°C° 0 mm 5 m/S 753 mmHg 53%
    17:00 +28°C° 0 mm 5 m/S 753 mmHg 64%
    18:00 +26°C° 0 mm 5 m/S 754 mmHg 74%
    19:00 +23°C° 0 mm 6 m/S 754 mmHg 85%
    20:00 +22°C° 0 mm 5 m/S 755 mmHg 88%
    21:00 +22°C° 0 mm 4 m/S 755 mmHg 91%
    22:00 +21°C° 0 mm 3 m/S 756 mmHg 94%
    23:00 +21°C° 0 mm 3 m/S 756 mmHg 94%

    20 Juni, Donnerstag

    Zeit Temperatur Niederschläge Wind Luftdruck Luftfeuchtigkeit
    00:00 +20°C° 0 mm 3 m/S 756 mmHg 94%
    01:00 +20°C° 0 mm 2 m/S 756 mmHg 94%
    02:00 +20°C° 0 mm 2 m/S 756 mmHg 94%
    03:00 +19°C° 0 mm 2 m/S 755 mmHg 94%
    04:00 +20°C° 0 mm 1 m/S 755 mmHg 94%
    05:00 +20°C° 0 mm 1 m/S 755 mmHg 94%
    06:00 +21°C° 0 mm 1 m/S 756 mmHg 93%
    07:00 +20°C° 0 mm 2 m/S 756 mmHg 93%
    08:00 +24°C° 0 mm 1 m/S 756 mmHg 79%
    09:00 +27°C° 0 mm 1 m/S 756 mmHg 65%
    10:00 +29°C° 0 mm 1 m/S 756 mmHg 51%
    11:00 +31°C° 0 mm 2 m/S 756 mmHg 45%
    12:00 +34°C° 0 mm 3 m/S 755 mmHg 39%
    13:00 +36°C° 0 mm 4 m/S 754 mmHg 33%
    14:00 +34°C° 0 mm 4 m/S 754 mmHg 40%
    15:00 +33°C° 0 mm 5 m/S 753 mmHg 47%
    16:00 +30°C° 0 mm 5 m/S 753 mmHg 55%
    17:00 +28°C° 0 mm 5 m/S 753 mmHg 65%
    18:00 +26°C° 0 mm 5 m/S 754 mmHg 76%
    19:00 +23°C° 0 mm 5 m/S 754 mmHg 86%
    20:00 +22°C° 0 mm 4 m/S 755 mmHg 89%
    21:00 +21°C° 0 mm 3 m/S 755 mmHg 91%
    22:00 +22°C° 0 mm 1 m/S 756 mmHg 94%
    23:00 +20°C° 0 mm 2 m/S 756 mmHg 94%

    21 Juni, Freitag

    Zeit Temperatur Niederschläge Wind Luftdruck Luftfeuchtigkeit
    00:00 +20°C° 0 mm 2 m/S 756 mmHg 94%
    01:00 +20°C° 0 mm 2 m/S 756 mmHg 94%
    02:00 +20°C° 0 mm 2 m/S 756 mmHg 94%
    03:00 +19°C° 0 mm 2 m/S 755 mmHg 94%
    04:00 +20°C° 0 mm 1 m/S 755 mmHg 94%
    05:00 +20°C° 0 mm 1 m/S 756 mmHg 94%
    06:00 +21°C° 0 mm 1 m/S 756 mmHg 93%
    07:00 +21°C° 0 mm 1 m/S 757 mmHg 93%
    08:00 +24°C° 0 mm 1 m/S 757 mmHg 80%
    09:00 +26°C° 0 mm 1 m/S 757 mmHg 68%
    10:00 +29°C° 0 mm 1 m/S 756 mmHg 55%
    11:00 +30°C° 0 mm 2 m/S 756 mmHg 52%
    12:00 +31°C° 0 mm 3 m/S 755 mmHg 48%
    13:00 +33°C° 0 mm 4 m/S 754 mmHg 45%
    14:00 +32°C° 0 mm 4 m/S 754 mmHg 50%
    15:00 +30°C° 0 mm 5 m/S 753 mmHg 56%
    16:00 +29°C° 0 mm 5 m/S 753 mmHg 62%
    17:00 +27°C° 0 mm 5 m/S 753 mmHg 71%
    18:00 +25°C° 0 mm 4 m/S 754 mmHg 80%
    19:00 +22°C° 0 mm 4 m/S 754 mmHg 90%
    20:00 +21°C° 0 mm 3 m/S 754 mmHg 91%
    21:00 +21°C° 0 mm 2 m/S 755 mmHg 93%
    22:00 +21°C° 0 mm 1 m/S 756 mmHg 95%
    23:00 +20°C° 0 mm 2 m/S 755 mmHg 95%

    22 Juni, Samstag

    Zeit Temperatur Niederschläge Wind Luftdruck Luftfeuchtigkeit
    00:00 +20°C° 0 mm 2 m/S 755 mmHg 96%
    01:00 +20°C° 0 mm 2 m/S 755 mmHg 96%
    02:00 +20°C° 0 mm 2 m/S 755 mmHg 96%
    03:00 +19°C° 0 mm 2 m/S 755 mmHg 96%
    04:00 +19°C° 0 mm 2 m/S 755 mmHg 96%
    05:00 +20°C° 0 mm 2 m/S 755 mmHg 96%
    06:00 +20°C° 0 mm 2 m/S 756 mmHg 96%
    07:00 +20°C° 0 mm 2 m/S 756 mmHg 96%
    08:00 +24°C° 0 mm 1 m/S 756 mmHg 83%
    09:00 +26°C° 0 mm 1 m/S 756 mmHg 70%
    10:00 +29°C° 0 mm 1 m/S 756 mmHg 57%
    11:00 +30°C° 0 mm 2 m/S 755 mmHg 53%
    12:00 +31°C° 0 mm 3 m/S 755 mmHg 50%
    13:00 +33°C° 0 mm 3 m/S 754 mmHg 46%
    14:00 +30°C° 0 mm 4 m/S 754 mmHg 52%
    15:00 +29°C° 0 mm 4 m/S 753 mmHg 57%
    16:00 +28°C° 0 mm 5 m/S 753 mmHg 63%
    17:00 +27°C° 0 mm 5 m/S 753 mmHg 71%
    18:00 +25°C° 0 mm 5 m/S 754 mmHg 79%
    19:00 +22°C° 0 mm 4 m/S 754 mmHg 86%
    20:00 +22°C° 0 mm 4 m/S 755 mmHg 89%
    21:00 +21°C° 0 mm 3 m/S 755 mmHg 91%
    22:00 +21°C° 0 mm 3 m/S 756 mmHg 93%
    23:00 +20°C° 0 mm 2 m/S 756 mmHg 94%
    Mehr zeigen